{"data":{"norad_id":66305,"intl_designator":"2025-248N","name":"BANDWAGON-4 OBJECT N","alt_names":[],"object_type":"PAYLOAD","status":"ACTIVE","operator":null,"country":"TBD","launch_date":"2025-11-02","launch_site_code":"AFETR","launch_vehicle":null,"mission":null,"orbit_class":"UNKNOWN","rcs_meters":null,"size_class":null,"mass_kg":null,"dimensions":null,"purposes":[],"wikipedia_slug":null,"has_3d_model":false,"image_url":null,"decayed_at":null,"tle_current":{"epoch":"2026-09-20T10:00:48.710016Z","epoch_age_seconds":138881,"freshness":"FRESH","line1":"1 66305U 25248N   26263.41723044  .00012238  00000+0  41381-3 0  9990","line2":"2 66305  45.4232 316.0181 0009039 248.0940 111.8990 15.30712323 47052","mean_motion":15.30712323,"eccentricity":0.0009039,"inclination_deg":45.4232,"raan_deg":316.0181,"arg_perigee_deg":248.094,"mean_anomaly_deg":111.899,"bstar":0.00041381,"rev_number":4705,"period_min":94.073849041588,"perigee_km":467.49242933701,"apogee_km":479.87915458032,"semimajor_km":6851.8227919587,"source":"CELESTRAK","updated_at":"2026-09-21T09:00:15.903133Z"}}}